{"data":{"norad_id":66611,"epoch":"2026-05-24T21:48:18.804672Z","epoch_age_seconds":89829,"freshness":"FRESH","line1":"1 66611U 25270Z   26144.90855098  .00009723  00000+0  36222-3 0  9995","line2":"2 66611  43.0008 345.6376 0001677 279.4267  80.6395 15.27594266 29479","mean_motion":15.27594266,"eccentricity":0.0001677,"inclination_deg":43.0008,"raan_deg":345.6376,"arg_perigee_deg":279.4267,"mean_anomaly_deg":80.6395,"bstar":0.00036222,"rev_number":2947,"period_min":94.265868369003,"perigee_km":481.8557650913,"apogee_km":484.15699258056,"semimajor_km":6861.1433788359,"source":"CELESTRAK","updated_at":"2026-05-25T13:38:21.292279Z"}}